Regional Weather Roundup
Issued by NWS

Home | Current Version | Previous Version | Text Only | Print | Product List | Glossary Off
Versions: 1 2 3 4 5 6 7 8 9 10 11 12 13 14 15 16 17 18 19 20 21 22 23 24 25 26 27 28 29 30 31 32 33 34 35 36 37 38 39 40 41 42 43 44 45 46 47 48 49 50

000
ASUS43 KMPX 290410
RWRMN
WEATHER ROUNDUP FOR MINNESOTA
NATIONAL WEATHER SERVICE TWIN CITIES/CHANHASSEN MN
1100 PM CDT THU AUG 28 2014


NOTE: "FAIR" INDICATES FEW OR NO CLOUDS BELOW 12,000 FEET WITH NO
SIGNIFICANT WEATHER AND/OR OBSTRUCTIONS TO VISIBILITY. N/A MEANS
CURRENT SKY AND/OR WEATHER CONDITIONS ARE NOT AVAILABLE.

MNZ060>063-068>070-290500-
   Twin Cities Metro

CITY           SKY/WX    TMP DP  RH WIND       PRES   REMARKS
TWIN CITIES    CLOUDY    67  64  90 SE10      29.92S
ST PAUL        CLOUDY    67  64  90 SE13      29.93S
CRYSTAL        CLOUDY    69  63  81 SE9       29.90F
BLAINE         CLOUDY    70  66  88 SE12      29.92S
LAKEVILLE      CLOUDY    64  63  94 E7        29.91F
EDEN PRAIRIE   CLOUDY    68  64  87 SE10      29.90F
SOUTH ST PAUL  CLOUDY    67  64  91 SE7       29.92F
LAKE ELMO      CLOUDY    66  64  94 SE9       29.94F
$$
MNZ001>005-007-008-013>017-022>024-027-028-290500-
   Northwest Minnesota

CITY           SKY/WX    TMP DP  RH WIND       PRES   REMARKS
BEMIDJI        CLOUDY    64  61  90 S3        29.92S
HALLOCK        CLOUDY    70  64  83 S15       29.82F
ROSEAU         MOCLDY    68  63  83 S6        29.87S
WARROAD        CLOUDY    66  64  94 S7        29.87F
THIEF RVR FALL CLOUDY    66  61  82 S6        29.88F
CROOKSTON      CLOUDY    66  63  88 SW3       29.88S
FOSSTON        CLOUDY    64  59  82 SE8       29.89F
DETROIT LAKES  CLOUDY    64  63  94 SE10      29.90F
MOORHEAD       CLOUDY    66  66 100 S9        29.87S
PARK RAPIDS    CLOUDY    64  63  96 SE7       29.91F
MAHNOMEN       MOCLDY    64  61  90 SE7       29.88F
$$
MNZ006-009>011-018-025>026-290500-
   North Central Minnesota

CITY           SKY/WX    TMP DP  RH WIND       PRES   REMARKS
BAUDETTE       CLOUDY    66  61  84 S7        29.89S
FLAG ISLAND    CLOUDY    68  64  88 S9        29.86S
INTL FALLS     LGT RAIN  64  60  87 S3        29.91F
WASKISH        CLOUDY    66  61  82 S3        29.90F
BIG FORK       CLOUDY    64  59  82 S5        29.93F
LONGVILLE      CLOUDY    63  61  94 CALM      29.92F
GRAND RAPIDS   CLOUDY    63  57  82 SE7       29.94F
CRANE LAKE     CLOUDY    64  57  77 S3        29.95S
ORR            CLOUDY    63  55  77 SE5       29.92S
COOK           CLOUDY    64  55  72 CALM      29.95F
WALKER         MOCLDY    63  62  94 CALM      29.92S
$$
MNZ012-019>021-037-290500-
   Northeast Minnesota

CITY           SKY/WX    TMP DP  RH WIND       PRES   REMARKS
DULUTH         CLOUDY    60  55  83 E7        29.97F
ELY            CLOUDY    61  50  67 S6        29.96F
HIBBING        CLOUDY    61  55  81 SE5       29.96F
EVELETH        CLOUDY    59  54  82 CALM      29.97F
DULUTH HARBOR  CLOUDY    63  61  94 NE9       29.96F
TWO HARBORS    CLOUDY    57  52  82 NE5       29.95F
SILVER BAY     CLOUDY    55  55 100 CALM      29.96F
GRAND MARAIS     N/A     61  52  72 NE5       29.98F
G MARAIS ARPRT MOCLDY    55  46  71 E3        30.01F
$$
MNZ029>031-032-039>041-046>048-054>057-064-290500-
   West Central Minnesota

CITY           SKY/WX    TMP DP  RH WIND       PRES   REMARKS
FERGUS FALLS   CLOUDY    64  63  94 SE6       29.88F FOG
WHEATON        CLOUDY    63  63 100 E5        29.87F
MORRIS         CLOUDY    66  66 100 SE9       29.86F FOG
ALEXANDRIA     CLOUDY    65  64  97 SE10      29.90F FOG
ELBOW LAKE     CLOUDY    64  64  98 SE6       29.88S
WADENA         LGT RAIN  63  63 100 SE9       29.90F
GLENWOOD       DRIZZLE   64  64 100 SE8       29.90F
APPLETON       CLOUDY    68  64  88 SE9       29.85F FOG
BENSON         CLOUDY    66  64  94 S13       29.88S
ORTONVILLE     CLOUDY    66  64  94 SE6       29.86S FOG
MADISON        CLOUDY    70  68  94 SE7       29.85F FOG
WILLMAR        CLOUDY    66  64  94 SE12      29.90S
$$
MNZ033>034-036-042>043-049>051-058-059-290500-
   Central Minnesota

CITY           SKY/WX    TMP DP  RH WIND       PRES   REMARKS
ST CLOUD       CLOUDY    68  64  87 SE7       29.91F FOG
SAUK CENTRE    CLOUDY    64  64  98 SE10      29.90F FOG
PAYNESVILLE    HVY RAIN  63  62  96 E9        29.91F
AITKIN         CLOUDY    66  61  82 SE7       29.93S
PINE RIVER     CLOUDY    64  64 100 SE6       29.95F
BRAINERD       CLOUDY    64  62  93 SE6       29.93S
STAPLES        DRIZZLE   63  63 100 SE3       29.91F
LONG PRAIRIE   CLOUDY    63  63 100 E10       29.91S FOG
LITTLE FALLS   CLOUDY    64  61  88 SE8       29.91S
LITCHFIELD     CLOUDY    66  66 100 SE9       29.91S
BUFFALO        CLOUDY    67  62  84 SE8       29.93S
MAPLE LAKE     CLOUDY    68  65  89 E6        29.92F
$$
MNZ037-044-045-052-053-290500-
   East Central Minnesota

CITY           SKY/WX    TMP DP  RH WIND       PRES   REMARKS
PRINCETON      CLOUDY    66  64  94 E5        29.93S
MORA           CLOUDY    63  59  88 SE3       29.96S
CAMBRIDGE      CLOUDY    66  57  72 E6        29.91F
RUSH CITY      CLOUDY    64  61  89 SE5       29.94S
MOOSE LAKE     CLOUDY    63  59  88 CALM      29.94S
HINCKLEY       CLOUDY    64  63  94 SE5       29.95S
CLOQUET        CLOUDY    61  55  82 CALM      29.97S
MCGREGOR       CLOUDY    63  61  94 E3        29.95S
$$
MNZ071>073-080-081-089-090-097-098-290500-
   Southwest Minnesota

CITY           SKY/WX    TMP DP  RH WIND       PRES   REMARKS
MONTEVIDEO     CLOUDY    66  66 100 S12       29.87S FOG
GRANITE FALLS  CLOUDY    66  65  97 SE12      29.88S
CANBY          CLOUDY    67  67  97 SE8       29.86F FOG
MARSHALL       CLOUDY    66  64  94 SE12      29.85S
REDWOOD FALLS  CLOUDY    67  65  93 E7        29.87F
OLIVIA         CLOUDY    68  64  88 SE8       29.88S
PIPESTONE      CLOUDY    68  66  94 SE7       29.86S
WINDOM         DRZL/FOG  66  64  94 E6        29.88S VSB 1/2
WORTHINGTON    CLOUDY    70  68  94 CALM      29.87F
JACKSON        CLOUDY    68  64  88 SE3       29.87F FOG
TRACY          CLOUDY    67  66  96 SE9       29.87S
SLAYTON        FOG       66  66 100 CALM      29.87F VSB 1/2
$$
MNZ065>067-074>077-082>085-091>093-290500-
   South Central Minnesota

CITY           SKY/WX    TMP DP  RH WIND       PRES   REMARKS
MANKATO        CLOUDY    66  63  88 E10       29.89F
NEW ULM        LGT RAIN  64  64 100 E6        29.88F
ST JAMES       CLOUDY    66  64  94 E7        29.88F
FAIRMONT       CLOUDY    64  64 100 SE5       29.87F
GLENCOE        CLOUDY    67  63  85 E9        29.89F
FARIBAULT      CLOUDY    68  63  83 E7        29.92S
OWATONNA       CLOUDY    66  64  94 E9        29.92S FOG
WASECA         CLOUDY    63  59  88 E8        29.92S FOG
ALBERT LEA     CLOUDY    70  68  94 SE8       29.90F FOG
$$
MNZ078>079-086>088-094>096-290500-
   Southeast Minnesota

CITY           SKY/WX    TMP DP  RH WIND       PRES   REMARKS
ROCHESTER      CLOUDY    66  64  93 SE9       29.95F FOG
RED WING       DRIZZLE   66  64  94 SE17      29.92F
STANTON        CLOUDY    67  64  88 SE9       29.90F
DODGE CENTER   DRIZZLE   66  64  94 SE7       29.93F
WINONA         RAIN      66  64  94 SE6       29.96S
AUSTIN         CLOUDY    66  66 100 SE7       29.92F FOG
PRESTON        CLOUDY    65  65 100 CALM      29.96S FOG
$$
ABBREVIATIONS USED IN REMARKS
   TC - TEMPERATURES IN CELSIUS
  WCI - WIND CHILL INDEX
   HX - HEAT INDEX
  VSB - VISIBILITY
$$



USA.gov is the U.S. government's official web portal to all federal, state and local government web resources and services.